Weather History for Mattoon, IL

Change the Weather History Date:

Thursday, March 6, 2014

  Actual Average Record
Temperature  
Mean Temperature 32 °F 39 °F  
Max Temperature 43 °F 48 °F 75 °F (1956)
Min Temperature 20 °F 30 °F -8 °F (1960)
Degree Days  
Heating Degree Days 33 26  
Month to date heating degree days 254 163  
Since 1 July heating degree days 5101 4367  
Cooling Degree Days 0 0  
Month to date cooling degree days 0 0  
Year to date cooling degree days 0 0  
Moisture  
Dew Point 21 °F    
Average Humidity 64    
Maximum Humidity 85    
Minimum Humidity 43    
Precipitation  
Precipitation 0.00 in 0.06 in 0.64 in (1989)
Month to date precipitation 0.08 0.35  
Year to date precipitation 2.01 4.33  
Sea Level Pressure  
Sea Level Pressure 30.22 in    
Wind  
Wind Speed 6 mph (NE)    
Max Wind Speed 13 mph    
Max Gust Speed 15 mph    
Visibility 8 miles    
Events      
T = Trace of Precipitation, MM = Missing Value Source: NWS Daily Summary

Daily Weather History Graph

Daily Weather History Graph

Search for Another Location

Airport:

Trip Planner

Search our weather history database for the weather conditions in past years. The results will help you decide how hot, cold, wet, or windy it might be!

Date:

Astronomy

Mar. 06, 2014 Rise Set
Actual Time 6:18 AM CST 5:50 PM CST
Civil Twilight 5:51 AM CST 6:17 PM CST
Nautical Twilight 5:20 AM CST 6:48 PM CST
Astronomical Twilight 4:49 AM CST 7:20 PM CST
Moon 9:27 AM CST (3/6) 11:54 PM CST (3/6)
Length of Visible Light 12h 25m
Length of Day
11h 32m
Waxing Crescent, 32% of the Moon is Illuminated
Mar 6
Waxing Crescent
Mar 8
First Quarter
Mar 16
Full
Mar 23
Last Quarter
Mar 30
New

Hourly Weather History & Observations

Time (CST) Temp. Windchill Dew Point Humidity Pressure Visibility Wind Dir Wind Speed Gust Speed Precip Events Conditions
12:53 AM 21.9 °F 11.0 °F 18.0 °F 85% 30.33 in 8.0 mi NE 10.4 mph - N/A   Clear
1:53 AM 21.9 °F 10.4 °F 17.1 °F 82% 30.32 in 7.0 mi ENE 11.5 mph - N/A   Clear
2:53 AM 21.0 °F 9.9 °F 17.1 °F 85% 30.30 in 6.0 mi ENE 10.4 mph - N/A   Clear
3:53 AM 21.9 °F 11.7 °F 17.1 °F 82% 30.29 in 7.0 mi ENE 9.2 mph - N/A   Clear
4:53 AM 21.0 °F 10.6 °F 16.0 °F 81% 30.30 in 8.0 mi ENE 9.2 mph - N/A   Clear
5:53 AM 19.9 °F 10.1 °F 16.0 °F 85% 30.29 in 9.0 mi East 8.1 mph - N/A   Clear
6:53 AM 19.9 °F 10.1 °F 15.1 °F 81% 30.29 in 6.0 mi ENE 8.1 mph - N/A   Haze
7:53 AM 23.0 °F 13.1 °F 16.0 °F 74% 30.30 in 9.0 mi ENE 9.2 mph - N/A   Clear
8:53 AM 26.1 °F 20.5 °F 18.0 °F 71% 30.31 in 10.0 mi East 4.6 mph - N/A   Clear
9:53 AM 28.9 °F 23.9 °F 19.0 °F 67% 30.30 in 10.0 mi NNE 4.6 mph - N/A   Clear
10:53 AM 30.9 °F 24.3 °F 21.9 °F 69% 30.28 in 10.0 mi ENE 6.9 mph - N/A   Clear
11:53 AM 36.0 °F 32.1 °F 21.9 °F 57% 30.26 in 10.0 mi NNE 4.6 mph - N/A   Clear
12:53 PM 39.0 °F 36.8 °F 21.0 °F 49% 30.22 in 10.0 mi Variable 3.5 mph - N/A   Clear
1:53 PM 41.0 °F 37.1 °F 23.0 °F 49% 30.19 in 10.0 mi ENE 5.8 mph - N/A   Clear
2:53 PM 43.0 °F 41.3 °F 21.9 °F 43% 30.15 in 10.0 mi ENE 3.5 mph - N/A   Clear
3:53 PM 43.0 °F 41.3 °F 23.0 °F 45% 30.14 in 10.0 mi NE 3.5 mph - N/A   Clear
4:53 PM 39.9 °F 35.8 °F 24.1 °F 53% 30.13 in 10.0 mi NE 5.8 mph - N/A   Clear
5:53 PM 37.0 °F 32.4 °F 24.1 °F 59% 30.14 in 10.0 mi North 5.8 mph - N/A   Clear
6:53 PM 33.1 °F 28.7 °F 25.0 °F 72% 30.15 in 10.0 mi North 4.6 mph - N/A   Clear
7:53 PM 30.9 °F 26.2 °F 24.1 °F 76% 30.14 in 10.0 mi NNE 4.6 mph - N/A   Clear
8:53 PM 28.9 °F 25.2 °F 24.1 °F 82% 30.13 in 7.0 mi NE 3.5 mph - N/A   Clear
9:53 PM 28.9 °F - 24.1 °F 82% 30.12 in 7.0 mi Calm Calm - N/A   Clear
10:53 PM 28.0 °F 24.2 °F 24.1 °F 85% 30.10 in 4.0 mi NNE 3.5 mph - N/A   Clear
11:53 PM 28.0 °F - 24.1 °F 85% 30.08 in 4.0 mi Calm Calm - N/A   Clear